This is the latest recevied weather packets stored in our database for station/object KT2UU-13. If no packets are shown the sender has not sent any weather packets the latest 10 day(s).
| Time | Temp. | Humidity | Pressure | Rain* | Wind** | Luminosity | Snow |
|---|---|---|---|---|---|---|---|
| 1778023118 | 24.44° C | 44% | 1013.6 hPa | 0 mm | - | - | - |
| 1778022816 | 24.44° C | 44% | 1013.6 hPa | 0 mm | - | - | - |
| 1778022514 | 24.44° C | 44% | 1013.6 hPa | 0 mm | - | - | - |
| 1778022211 | 25° C | 43% | 1013.7 hPa | 0 mm | - | - | - |
| 1778021908 | 25° C | 43% | 1013.7 hPa | 0 mm | - | - | - |
| 1778021605 | 25.56° C | 43% | 1013.6 hPa | 0 mm | - | - | - |
| 1778021300 | 25.56° C | 42% | 1013.6 hPa | 0 mm | - | - | - |
| 1778020998 | 25° C | 44% | 1013.7 hPa | 0 mm | - | - | - |
| 1778020695 | 23.89° C | 49% | 1013.7 hPa | 0 mm | - | - | - |
| 1778020392 | 23.89° C | 48% | 1013.8 hPa | 0 mm | - | - | - |
| 1778020087 | 23.89° C | 47% | 1013.8 hPa | 0 mm | - | - | - |
| 1778019784 | 23.89° C | 45% | 1013.6 hPa | 0 mm | - | - | - |
| 1778019481 | 24.44° C | 46% | 1013.6 hPa | 0 mm | - | - | - |
| 1778019177 | 23.89° C | 46% | 1013.6 hPa | 0 mm | - | - | - |
| 1778018875 | 24.44° C | 45% | 1013.7 hPa | 0 mm | - | - | - |
| 1778018572 | 24.44° C | 42% | 1013.8 hPa | 0 mm | - | - | - |
| 1778018270 | 24.44° C | 43% | 1013.8 hPa | 0 mm | - | - | - |
| 1778017967 | 24.44° C | 44% | 1013.8 hPa | 0 mm | - | - | - |
| 1778017665 | 24.44° C | 44% | 1013.9 hPa | 0 mm | - | - | - |
| 1778017362 | 24.44° C | 40% | 1014.1 hPa | 0 mm | - | - | - |
| 1778017059 | 24.44° C | 43% | 1013.9 hPa | 0 mm | - | - | - |
| 1778016757 | 24.44° C | 41% | 1014 hPa | 0 mm | - | - | - |
| 1778016452 | 24.44° C | 41% | 1013.7 hPa | 0 mm | - | - | - |
| 1778016150 | 24.44° C | 42% | 1013.5 hPa | 0 mm | - | - | - |
| 1778015847 | 24.44° C | 42% | 1013.7 hPa | 0 mm | - | - | - |
* Rain latest hour (hover to see other rain measurements)
** Current wind speed in m/s (hover to see current wind gust speed)